User: anonymous   Login
Location: Unspecified
(0.0000°N, 0.0000°E)
Time: 22:33:13
(UTC+00:00)
Language:

NOAA 10 - Orbit

View from above orbital plane
View from above orbital plane
View from above satellite
View from above satellite

Ground track
Ground track

The orbit data is extracted from the following two-line orbital elements,

1 16969U 86073A   18203.61382740  .00000005  00000-0  19163-4 0  9999
2 16969  98.4648 204.9594 0012227 173.1105 295.1485 14.28047301657582
Epoch (UTC): 22 July 2018 14:43:54
Eccentricity: 0.0012227
inclination: 98.4648°
perigee height: 789 km
apogee height: 807 km
right ascension of ascending node: 204.9594°
argument of perigee: 173.1105°
revolutions per day: 14.28047301
mean anomaly at epoch: 295.1485°
orbit number at epoch: 65758

The dashed part of the orbit path shows where the satellite is in the earth's shadow,  

DLR